RH
94 90 89 95 96 91 83 79 79 78 74 70 72 73 72 73 73 71 69 69 70 76 75 72 73 73 72 71 66 64 64 61 60 60 63 66 64 63 62 60 55 54 56 55 55 55 56 56 56 60 63 61 59 59 59 59 61 63 65 68 68 65 61 59 61 64 72 78 78 79 84 86 83 76 80 86 78 72 73 72 73 72 75 82 88
88 82 80 87 93 93 87 80 80 79 70 62 66 73 72 70 73 73 72 73 71 74 75 73 75 74 72 70 66 70 69 62 60 59 59 59 56 56 55 54 52 55 58 56 57 64 65 62 61 62 64 62 60 61 61 62 62 63 63 65 68 70 67 61 58 60 62 72 80 76 77 83 83 75 70 74 72 71 74 73 74 75 77 84 88
80 77 75 79 86 93 90 79 78 78 68 61 62 67 71 71 74 77 74 73 72 72 73 73 75 75 76 72 73 82 74 64 62 57 56 54 51 51 52 52 52 56 56 53 55 63 63 58 59 60 64 68 67 66 65 64 65 69 71 69 70 74 75 68 62 62 61 68 79 72 66 74 78 75 68 65 65 71 76 74 75 81 82 83 89
75 73 73 76 81 87 86 78 79 78 69 63 64 65 68 73 73 79 79 73 72 72 73 74 75 75 78 77 80 85 71 63 60 54 53 52 50 50 50 49 52 55 53 51 52 57 57 55 57 62 67 70 73 71 68 63 63 70 75 75 71 71 74 71 66 62 62 65 70 68 64 68 72 76 77 71 72 77 79 77 77 86 88 83 87
73 70 72 76 81 82 78 80 82 77 71 64 68 71 69 75 75 79 81 75 72 73 75 75 76 75 78 79 79 78 69 64 57 51 52 50 49 48 48 49 52 54 54 53 53 55 54 56 60 66 69 70 75 73 69 65 63 66 72 74 69 69 71 69 66 64 62 59 61 63 63 69 72 78 86 78 81 88 82 79 82 88 90 84 85
73 69 69 74 79 80 75 81 84 78 78 69 70 75 71 79 82 83 80 78 76 74 76 76 75 73 74 74 71 70 66 64 59 55 53 50 47 46 48 50 53 54 55 54 55 55 54 59 61 65 71 75 79 76 74 72 68 68 72 75 70 68 70 69 67 69 68 59 57 58 58 70 74 75 88 81 79 91 85 81 85 87 90 86 85
74 69 68 72 76 78 77 84 86 79 83 74 69 72 71 78 86 89 85 84 81 76 80 81 77 71 73 77 76 77 72 65 62 59 55 51 47 47 49 50 51 51 52 53 55 56 57 61 60 63 71 78 81 82 80 76 74 74 76 80 77 70 70 70 68 73 76 65 59 60 56 69 79 74 88 86 75 86 87 82 83 85 89 87 86
74 69 67 71 72 76 78 89 90 82 87 77 68 70 70 76 81 90 91 89 87 85 85 81 76 71 76 84 87 90 82 68 63 61 56 50 47 47 48 47 49 51 51 53 55 57 59 60 58 61 70 76 78 84 83 78 77 77 81 87 84 78 77 75 72 74 78 73 65 67 61 67 80 78 85 85 75 78 83 83 83 85 87 86 85
75 70 68 71 71 74 80 94 95 91 94 78 66 68 70 74 78 85 88 85 86 87 81 74 71 72 79 83 87 89 79 68 64 61 56 50 47 47 47 48 50 52 53 55 56 57 58 56 55 59 69 78 79 82 79 76 79 79 83 89 90 87 87 86 81 75 77 78 72 72 68 69 77 78 80 80 76 73 78 85 84 86 87 87 85
76 72 71 71 72 80 88 97 97 95 95 82 69 65 68 72 75 76 77 76 78 77 73 72 69 72 79 80 83 81 69 64 63 59 54 49 46 47 48 52 55 56 57 57 54 53 54 52 54 57 66 78 84 84 77 75 81 84 79 79 90 95 91 92 92 83 77 79 78 77 73 75 77 76 81 83 79 73 74 80 81 83 86 86 85
78 75 75 75 79 87 92 95 97 94 88 85 77 69 71 72 70 68 68 70 70 71 71 72 69 69 74 74 76 72 66 63 61 57 52 48 46 49 52 57 59 59 57 53 51 53 53 52 53 54 59 71 81 84 83 82 80 80 77 71 78 88 89 89 93 90 80 77 79 79 76 80 80 75 82 85 76 72 72 74 81 85 85 82 81
81 77 81 85 86 89 89 88 90 88 81 85 86 83 84 78 74 72 74 75 71 71 69 71 70 68 68 68 67 63 64 62 61 61 55 50 49 53 56 58 58 57 54 52 53 53 52 51 53 53 54 60 69 75 76 77 75 72 73 72 70 76 85 87 90 91 85 78 77 78 77 80 81 75 83 87 73 72 75 74 82 86 84 81 80
82 77 83 86 85 86 79 76 79 79 81 89 90 89 90 83 82 82 82 81 76 72 68 70 71 68 68 67 63 59 62 61 63 65 60 55 55 58 57 56 56 56 56 56 53 50 50 51 53 54 55 55 57 66 70 72 75 72 70 70 72 74 77 85 88 85 86 82 79 80 78 77 79 76 81 88 78 75 79 77 78 83 84 82 82
83 78 81 83 83 85 74 74 80 77 78 81 81 83 84 79 78 80 80 78 75 72 68 70 69 68 68 65 61 58 60 62 63 64 64 62 61 60 57 56 57 58 57 54 52 51 51 52 54 55 56 57 57 64 76 84 84 83 80 73 74 74 71 81 85 83 86 83 82 82 78 78 78 75 80 87 84 82 82 80 77 78 85 84 83
83 77 80 83 86 88 78 80 81 74 69 68 74 76 75 73 77 78 76 76 75 74 72 70 69 68 66 65 63 62 66 68 68 69 69 66 61 58 56 57 57 56 55 55 56 55 55 57 62 62 61 62 62 66 80 94 94 90 85 77 75 75 75 80 82 86 84 80 86 81 73 79 80 74 78 86 87 87 86 85 81 77 83 84 82
81 80 82 85 86 88 83 77 71 69 64 63 69 68 68 71 77 76 72 74 74 75 73 68 67 66 65 67 68 70 76 76 74 73 68 61 58 56 56 56 56 58 60 63 63 63 65 72 79 78 75 72 73 75 78 90 97 92 80 77 81 78 79 79 82 88 75 74 89 81 71 78 82 73 74 86 90 88 87 86 84 79 80 82 82
81 83 84 85 82 82 85 76 69 72 66 64 68 66 67 69 72 71 70 72 71 73 72 66 66 65 66 70 72 74 76 74 70 66 59 55 54 54 55 56 60 67 69 72 73 74 78 88 96 92 85 80 80 81 75 79 91 97 84 77 84 83 81 78 81 88 75 72 83 81 79 83 84 78 75 84 90 89 87 84 82 79 78 80 82
84 84 83 84 85 86 86 79 78 82 76 73 76 77 76 74 74 71 69 70 69 69 67 66 65 64 68 71 70 70 68 65 62 58 55 53 52 51 53 55 63 71 72 73 78 81 85 97 98 82 76 75 76 80 78 79 87 97 91 78 77 79 79 76 78 87 88 83 79 77 81 85 87 83 74 77 88 90 86 82 80 79 77 78 81
87 87 85 83 88 92 86 81 85 85 84 81 78 81 82 79 76 71 69 69 69 67 66 66 66 67 70 70 70 70 65 61 58 54 52 49 48 48 50 51 57 64 66 69 77 84 92 100 89 73 74 78 77 76 77 83 87 91 93 85 75 71 72 73 75 79 87 86 77 75 75 77 85 84 74 75 87 92 85 76 77 80 78 75 77
88 91 95 90 85 87 84 81 82 80 82 80 75 78 83 83 77 73 71 67 66 65 66 67 70 75 76 75 77 76 70 64 57 51 51 50 49 52 56 56 56 61 66 70 73 77 87 91 79 76 81 79 77 76 74 76 80 85 88 87 78 73 72 71 71 67 72 79 77 79 75 69 76 81 77 77 85 92 86 71 70 78 80 75 75
95 95 98 96 84 80 79 75 75 78 81 78 75 77 84 87 81 76 72 70 71 70 71 74 80 84 80 78 80 81 78 71 62 55 55 55 55 60 65 65 66 70 74 75 73 70 79 86 75 74 79 77 77 79 76 66 70 80 81 80 78 77 74 69 68 65 67 75 77 81 79 68 69 76 74 77 84 91 88 74 67 71 77 76 74
100 98 97 96 86 77 73 70 68 72 81 83 79 74 79 85 86 82 75 75 77 76 78 81 84 82 80 82 81 82 79 71 67 62 59 61 63 68 71 72 73 76 77 76 77 72 74 84 78 68 71 75 72 70 72 68 71 77 74 73 73 73 72 69 67 67 67 70 72 78 81 73 67 71 73 74 78 87 90 81 71 66 72 74 73
95 97 98 95 86 78 76 75 70 68 78 85 79 75 80 82 86 88 80 76 76 78 79 80 79 75 79 84 79 77 73 64 64 69 72 76 76 77 78 77 76 76 76 73 72 68 65 72 75 68 68 69 67 68 73 75 73 70 69 71 71 69 69 66 65 65 65 66 68 71 79 79 71 68 72 72 70 81 91 88 76 63 68 71 71
92 89 95 97 91 84 81 80 76 70 74 78 76 77 82 80 82 88 84 77 75 76 76 75 74 73 75 77 74 72 67 61 63 73 80 81 80 80 80 80 79 75 72 67 64 63 60 61 65 67 68 66 66 69 70 70 71 72 72 72 71 72 71 66 63 63 63 63 65 66 72 79 79 73 72 72 68 75 87 92 83 63 62 69 69
94 87 90 95 93 88 81 78 75 71 71 73 74 75 78 79 78 81 81 77 74 74 73 72 72 72 73 71 70 69 67 65 65 68 73 76 77 77 77 77 76 70 65 64 63 62 61 61 64 67 66 62 60 60 60 63 70 76 76 75 75 75 75 72 67 65 64 61 62 66 67 72 80 80 76 73 69 73 83 91 90 73 61 63 68
96 91 90 88 88 87 80 76 74 72 71 72 74 73 74 77 76 76 77 76 73 73 73 72 72 73 72 70 70 71 69 68 65 61 64 70 73 72 72 73 70 66 64 64 64 63 63 64 66 69 66 59 57 58 59 61 64 68 72 74 74 71 71 75 73 69 68 64 61 64 68 70 75 81 81 77 70 71 81 87 90 84 72 62 63
96 92 90 89 86 84 80 77 76 73 73 73 75 75 73 73 75 76 75 75 73 73 74 74 74 74 72 73 74 75 73 70 66 62 63 69 72 71 71 70 68 66 66 66 65 64 64 65 67 71 67 60 58 62 66 66 66 68 71 76 75 72 71 74 75 73 72 70 66 64 66 69 71 77 82 81 75 71 76 84 86 85 85 74 63
95 93 92 92 89 84 80 79 79 76 76 77 77 76 74 72 75 79 75 75 75 73 74 74 74 75 73 73 73 74 74 72 69 66 65 70 73 72 71 69 68 67 67 69 68 66 65 65 69 71 66 60 60 66 71 72 71 70 72 79 81 77 74 75 73 73 76 77 74 71 68 68 68 72 80 83 81 74 70 76 80 80 83 84 76
94 91 90 91 88 85 82 79 78 77 76 78 79 78 75 73 74 77 75 74 75 74 75 75 74 75 74 72 72 72 73 73 72 69 68 71 72 72 72 69 68 68 67 71 72 71 70 70 72 72 67 64 67 72 75 75 74 72 72 78 82 80 77 74 69 69 77 83 82 79 75 72 69 69 75 81 83 77 70 72 77 79 80 83 86
90 87 90 90 86 86 86 80 75 75 75 77 79 77 75 73 73 74 73 74 76 74 74 76 76 76 75 73 74 74 75 77 76 73 74 75 75 73 71 69 69 68 67 69 74 76 76 76 76 76 74 73 75 76 77 77 74 75 75 77 80 80 79 77 71 68 75 82 81 79 78 76 75 73 71 76 81 78 70 69 72 77 80 83 87
90 91 91 87 83 85 85 79 72 72 72 74 75 74 73 73 72 72 72 73 74 74 73 74 76 76 76 75 77 77 76 78 77 76 79 80 78 75 72 70 69 68 67 67 75 81 80 80 79 79 79 78 78 79 80 76 71 73 76 78 80 80 80 81 79 76 79 80 77 74 75 76 77 77 75 73 77 80 75 71 71 75 78 83 90
92 90 85 81 79 76 75 72 68 69 69 70 72 73 74 75 75 74 73 72 72 73 71 70 71 72 74 76 78 79 77 75 76 77 80 82 80 76 73 72 69 68 67 66 74 84 84 83 82 79 79 79 80 81 78 72 70 72 74 76 78 78 79 80 80 79 79 77 74 70 69 72 73 76 78 75 79 86 85 80 78 81 81 84 94
91 85 79 77 73 69 67 67 66 69 70 70 72 73 75 76 77 77 75 73 72 72 71 70 70 70 73 76 78 79 77 75 75 77 80 82 80 77 74 72 71 69 68 68 75 81 83 83 82 81 82 82 81 77 72 70 71 71 71 71 70 71 73 74 73 72 71 69 68 65 64 66 68 72 73 75 85 85 80 78 72 76 83 84 89
91 89 83 75 70 67 66 67 69 71 72 72 74 74 75 76 77 77 75 75 73 72 71 70 69 70 72 76 79 80 77 75 76 77 79 80 79 76 75 73 72 72 71 72 75 78 81 83 83 85 84 83 79 74 71 71 72 70 70 71 70 72 73 72 71 67 65 63 61 61 63 65 66 70 70 75 85 78 77 85 76 74 79 75 73
91 92 85 72 67 67 66 68 70 73 74 73 73 74 75 74 73 72 71 72 71 70 70 69 68 70 73 75 78 79 78 77 76 75 77 77 78 75 74 74 74 75 75 77 79 81 84 86 87 87 83 80 78 76 78 78 75 72 73 75 75 76 75 74 74 72 70 64 59 58 59 61 62 66 66 73 84 77 78 88 83 76 72 63 62
88 89 84 76 70 67 66 68 70 74 75 73 72 74 76 75 73 70 69 68 69 70 69 68 68 69 72 75 77 77 75 74 73 73 76 75 75 76 76 76 77 79 81 82 84 87 89 90 91 89 82 79 81 81 83 84 80 75 74 73 70 69 68 69 72 72 71 68 65 62 61 62 61 61 59 61 75 80 75 74 74 71 68 65 64
84 84 83 82 76 69 68 68 69 73 74 73 72 74 77 77 76 74 72 71 70 71 70 69 70 71 73 73 75 77 73 73 75 71 72 74 76 81 80 79 82 84 84 85 88 92 92 92 89 86 84 86 88 88 88 88 82 73 68 67 65 63 62 65 68 70 69 67 64 63 65 69 67 66 61 56 64 77 75 64 61 63 62 63 65
81 80 79 78 75 71 70 69 69 70 71 73 73 74 77 78 78 77 76 75 73 74 73 72 72 72 75 74 74 77 72 74 82 74 71 77 78 81 82 83 87 86 85 88 93 92 90 90 88 87 90 91 92 91 92 91 82 69 63 63 64 64 64 67 68 68 68 65 63 65 69 73 74 73 71 66 63 70 77 70 62 62 63 67 72
81 79 78 76 73 72 72 73 73 71 69 71 73 75 77 77 77 77 79 81 77 76 75 74 76 77 82 83 79 77 70 74 87 80 76 81 76 76 82 86 88 86 86 91 93 91 89 91 90 90 92 91 92 93 94 94 83 69 64 63 64 65 66 69 69 68 68 68 68 70 71 71 75 78 78 79 76 75 81 84 80 76 75 78 81
80 79 80 80 77 74 75 78 78 75 73 72 75 82 85 82 80 79 81 83 78 75 75 75 79 81 86 87 81 76 75 82 89 79 72 76 76 79 84 84 85 85 86 89 90 88 89 90 89 88 87 86 85 88 95 97 84 70 65 62 62 67 69 69 70 69 69 70 70 69 69 69 72 78 82 85 88 87 87 90 88 85 82 84 86
80 80 81 80 77 74 75 76 76 77 77 74 76 84 87 88 88 84 81 80 76 75 75 74 76 78 81 86 86 82 81 85 84 73 68 73 79 82 80 76 78 78 79 83 83 81 81 85 90 86 84 85 81 83 96 99 92 84 76 65 57 61 70 70 68 70 69 67 66 63 62 64 67 70 74 76 78 80 82 84 85 87 88 90 91
80 81 79 75 73 74 73 69 71 75 75 73 75 77 79 81 82 81 78 75 74 75 75 74 75 77 78 84 89 84 79 78 75 72 74 76 77 75 70 68 68 66 70 76 75 73 75 82 88 81 78 88 87 85 95 96 95 98 95 85 69 61 68 65 62 68 69 62 57 52 45 48 55 57 59 62 63 64 65 67 72 78 82 84 87
78 79 77 74 74 75 72 69 71 73 72 74 78 76 74 75 75 77 77 75 74 75 76 77 77 81 82 84 87 83 79 78 77 76 77 73 68 66 66 65 62 62 70 75 71 70 75 79 80 75 76 90 91 87 91 92 94 98 98 98 90 82 78 69 62 64 66 61 50 42 39 40 46 49 51 53 54 55 55 56 58 61 65 68 74
78 79 79 78 78 76 71 70 72 72 72 75 77 76 76 77 77 79 79 79 79 77 78 80 82 85 86 86 86 84 82 82 81 78 73 67 65 66 66 66 66 69 74 74 71 73 77 78 77 80 87 94 95 92 90 88 93 95 94 96 99 98 91 83 81 71 63 63 52 42 41 40 40 40 42 44 46 49 51 52 55 55 56 58 61
79 78 78 78 79 76 72 71 73 71 72 73 75 78 81 83 83 85 84 83 82 80 80 80 81 83 84 84 85 85 87 87 81 72 66 63 64 65 64 67 71 74 74 72 75 79 82 86 86 88 93 95 95 97 93 85 85 88 92 97 97 97 93 91 95 79 61 61 58 49 43 39 37 35 33 34 37 44 47 50 54 55 56 56 58
78 75 74 74 76 75 74 74 74 71 71 72 74 78 83 85 85 86 86 85 84 82 78 75 77 80 79 79 81 85 88 84 74 66 63 61 61 63 64 67 70 71 73 74 79 85 87 91 90 85 87 92 91 91 92 87 80 79 87 92 89 93 96 93 94 86 73 66 58 51 46 40 37 33 31 32 33 39 46 49 51 52 53 54 56
77 74 73 75 75 73 73 74 73 72 72 72 72 76 81 84 83 84 84 84 83 79 73 69 76 80 75 71 74 79 79 74 69 66 64 61 60 64 66 66 68 70 73 77 82 86 86 86 85 80 78 83 84 80 86 89 84 82 87 91 89 89 94 97 97 93 88 76 58 50 49 44 39 34 32 32 34 39 44 49 51 51 51 51 51
75 75 76 76 76 73 71 71 73 74 71 69 68 71 76 79 82 84 85 83 79 75 69 67 77 80 69 67 70 72 71 68 66 64 62 61 62 66 69 69 71 73 74 80 84 84 83 80 80 78 73 74 77 77 84 91 91 90 92 95 92 85 84 92 97 97 97 90 72 61 56 48 41 38 35 32 33 37 40 44 48 46 45 45 44
75 75 74 73 72 70 69 69 73 74 69 64 65 68 70 74 80 84 85 82 77 75 70 71 82 80 66 65 70 70 68 64 64 63 61 64 68 69 71 70 71 73 74 77 79 77 77 78 76 71 66 69 74 77 83 89 92 93 95 95 90 85 85 86 86 89 96 96 87 80 77 70 55 42 37 37 35 35 37 39 40 38 38 39 39
74 73 71 71 69 68 69 72 72 71 68 64 64 67 68 73 80 82 82 79 76 76 73 75 85 80 65 64 69 68 64 61 62 64 64 67 70 70 69 67 69 73 72 67 65 65 66 71 71 64 62 68 74 77 79 83 89 91 90 89 84 83 90 94 87 80 87 95 94 92 90 91 85 62 44 41 39 37 36 35 35 34 33 35 36
74 73 73 72 71 70 70 71 72 70 69 66 65 66 68 73 76 76 77 76 75 75 75 78 84 79 68 63 64 64 61 61 63 64 67 68 69 69 68 65 65 67 63 57 59 62 62 64 65 60 61 66 70 76 76 77 84 84 81 81 80 78 81 88 85 75 82 94 96 96 90 87 92 77 54 46 42 40 38 34 34 34 32 32 34
Wind_Speed
10 13 16 17 22 25 25 25 25 25 25 27 27 26 26 26 25 25 24 22 21 20 20 22 23 23 23 22 22 21 20 19 18 17 16 14 13 13 12 11 11 11 10 9 9 8 8 8 8 8 8 8 8 8 8 9 9 8 7 7 6 5 4 4 8 9 9 8 7 9 9 8 8 9 10 9 8 8 7 7 7 7 8 9 9
13 16 19 19 21 23 23 23 23 23 25 27 28 26 25 25 25 24 23 22 21 19 19 20 22 23 23 22 22 20 19 19 17 16 15 14 13 13 12 11 11 10 10 9 8 8 7 6 7 7 8 7 7 7 8 9 9 8 8 7 6 4 3 3 6 7 8 7 8 10 9 8 7 7 8 7 6 7 7 7 6 7 8 8 9
16 18 20 21 21 20 22 23 22 22 25 27 28 28 26 25 24 23 22 22 21 20 20 20 21 23 22 21 21 19 19 18 17 16 15 14 13 13 12 12 11 11 10 9 8 8 7 6 6 6 6 6 7 7 8 8 8 7 7 7 5 3 1 2 4 5 7 6 8 8 7 7 6 5 6 5 5 6 7 6 6 7 7 8 9
19 19 20 22 21 20 22 23 21 20 23 26 27 27 26 25 24 22 22 22 22 22 22 21 21 22 21 20 20 19 19 18 16 16 16 15 14 14 13 13 12 11 10 9 8 8 7 5 5 5 6 5 6 7 8 7 6 6 6 5 4 2 1 3 3 3 4 4 5 6 6 6 5 5 4 4 5 6 5 5 7 7 8 8 10
21 21 21 22 22 22 24 23 20 19 21 25 26 26 26 24 23 22 22 23 23 24 24 22 22 22 21 19 19 19 18 17 17 16 16 16 15 14 13 13 12 10 9 8 8 7 6 5 5 5 6 6 5 6 7 7 7 6 5 5 4 4 1 4 4 3 2 3 4 3 4 4 4 4 4 4 5 5 4 5 8 8 8 8 10
21 22 22 23 23 23 26 24 20 19 20 23 24 25 27 25 23 22 23 23 22 23 24 23 22 22 21 19 19 18 18 17 16 16 16 15 15 14 13 12 11 10 8 8 7 6 6 5 4 4 6 7 6 6 6 7 7 7 6 5 5 5 3 3 4 2 2 2 3 3 4 4 4 4 5 5 5 6 5 7 8 9 9 8 9
22 24 23 23 24 23 24 25 21 20 20 21 22 24 27 27 25 22 22 22 21 22 21 21 22 21 20 19 18 18 18 17 16 15 15 15 14 13 12 11 10 9 8 7 6 5 4 4 3 5 6 7 6 5 6 7 8 8 7 6 6 6 5 1 3 2 3 3 3 3 3 4 4 4 5 5 5 6 6 7 8 9 9 9 9
23 24 24 24 23 21 22 22 21 21 21 20 21 22 25 26 25 23 22 20 20 21 21 21 21 20 19 18 17 17 17 17 16 15 15 14 13 12 11 10 9 8 7 6 5 4 3 3 3 4 5 5 5 5 7 8 9 9 8 7 7 6 6 3 1 2 3 4 4 3 3 4 4 4 4 5 5 6 6 7 8 9 9 8 8
23 24 25 24 22 20 20 18 18 20 21 21 21 21 23 24 24 24 22 21 21 22 21 21 20 19 19 18 17 17 16 16 14 14 13 13 12 11 9 8 7 6 6 5 3 2 2 2 3 4 5 5 5 6 6 7 9 10 9 8 8 7 6 5 1 1 3 5 5 4 4 4 4 4 4 4 5 6 6 7 8 9 8 9 9
23 24 25 24 22 19 17 17 18 20 22 22 21 23 24 23 23 23 23 21 21 21 21 20 20 19 18 17 16 16 16 14 13 13 12 11 10 9 8 6 5 5 4 3 2 1 2 3 4 5 5 6 6 6 7 8 8 7 6 6 6 8 7 6 3 1 1 4 6 6 5 5 4 3 4 4 4 5 6 7 8 9 9 8 9
23 23 24 23 21 18 17 17 18 20 23 23 22 25 25 23 22 22 21 21 21 20 20 19 19 18 17 16 15 15 14 13 12 11 10 9 8 7 6 5 4 4 3 1 1 2 3 4 5 5 6 6 6 6 7 7 7 6 6 6 4 5 6 6 5 3 2 3 5 7 7 6 5 3 4 4 4 5 6 7 8 9 9 8 9
23 23 23 22 19 18 18 17 18 20 22 23 24 26 25 24 23 21 20 19 19 19 18 18 17 16 15 15 14 14 13 12 10 8 7 7 6 6 5 4 4 2 1 2 3 4 5 5 5 6 5 6 6 6 6 6 7 9 9 10 8 5 4 5 4 3 4 4 3 6 8 7 6 4 3 4 3 3 5 7 8 8 9 9 9
24 23 23 22 20 19 20 19 18 21 22 22 24 24 24 24 23 21 20 19 18 18 17 17 16 15 15 14 13 12 11 10 9 7 6 6 6 5 5 4 3 2 2 3 4 5 6 6 6 6 6 6 6 6 7 6 7 9 11 13 12 9 7 4 4 4 6 8 5 4 8 8 6 5 4 4 3 3 5 7 8 9 9 9 9
24 23 23 21 21 20 21 20 18 20 21 20 21 22 21 22 21 20 19 19 19 18 17 17 16 15 14 13 12 12 11 9 8 7 7 6 6 5 5 4 3 2 3 4 5 6 6 6 6 7 7 8 8 7 8 7 7 9 11 14 14 12 9 6 6 7 7 8 6 4 6 8 7 6 4 4 4 3 4 7 8 9 10 10 9
24 24 23 21 21 20 20 20 19 20 20 20 19 19 19 18 18 18 18 19 19 18 17 16 16 15 14 13 12 11 10 9 8 8 7 7 6 5 4 3 2 2 4 5 6 7 7 7 8 8 8 9 10 9 9 8 8 9 11 14 15 13 11 8 6 7 7 7 5 3 5 6 8 7 5 4 4 4 4 7 8 9 10 10 10
24 23 22 21 20 20 20 21 21 21 20 20 18 18 17 17 17 17 18 18 17 17 16 16 15 14 14 13 12 11 9 9 9 8 8 7 6 5 4 3 3 4 4 5 6 6 8 9 9 10 10 11 11 10 10 9 8 8 11 14 15 15 13 10 6 7 8 9 7 3 5 5 7 7 6 5 5 5 4 6 8 9 10 10 10
23 21 21 21 22 21 20 21 21 20 19 19 18 17 17 16 16 16 16 16 15 15 16 15 14 14 13 11 11 10 9 9 8 8 7 6 6 5 4 4 4 5 5 6 7 7 9 10 10 12 11 11 11 12 11 10 8 7 8 10 12 13 12 12 8 7 9 10 10 4 5 5 7 8 6 6 7 7 6 6 8 10 10 10 10
23 21 21 22 22 21 21 21 19 19 18 17 17 16 16 16 15 15 15 14 14 14 14 14 13 12 11 10 9 9 9 8 8 7 6 5 5 5 5 5 6 6 6 7 8 9 11 11 12 12 12 12 12 13 13 10 9 7 7 8 9 11 11 11 10 9 9 9 10 6 5 5 7 8 7 7 8 8 7 7 8 9 10 10 10
23 21 21 21 21 21 21 21 20 20 19 18 18 17 16 16 15 15 15 14 14 14 13 12 12 10 9 9 8 8 8 7 7 6 5 6 6 6 7 7 7 7 8 9 10 12 12 13 13 14 13 13 13 12 11 9 8 8 7 8 9 10 11 12 12 11 10 9 9 7 5 6 7 8 8 8 9 9 9 8 8 9 10 10 10
21 20 19 19 20 21 20 21 21 20 19 18 17 17 16 16 15 15 14 14 14 14 13 12 11 9 9 8 8 7 7 7 7 5 5 6 7 8 9 9 10 10 10 12 13 14 14 14 15 15 13 11 10 9 8 7 6 8 6 6 8 9 11 12 12 12 11 10 9 7 5 8 9 8 9 10 10 11 10 10 10 10 10 11 11
19 19 18 17 19 20 20 21 21 20 20 19 18 17 16 15 14 14 13 13 13 13 13 11 10 9 8 8 8 8 7 7 7 6 6 6 7 10 11 12 12 13 14 15 15 16 15 14 14 13 10 8 8 8 9 8 8 9 7 6 7 8 10 12 13 12 12 11 9 7 5 8 10 10 10 11 11 12 12 11 11 11 11 11 11
19 19 19 18 19 20 19 20 20 20 19 19 18 18 17 16 15 14 13 13 13 12 12 10 10 9 9 9 9 9 9 8 7 6 6 7 9 11 13 14 15 15 16 16 15 15 14 12 12 11 9 7 7 8 10 11 10 9 8 7 7 7 9 11 12 12 12 12 11 8 5 7 10 11 11 12 12 13 13 13 12 12 12 12 12
20 21 20 20 21 20 20 20 20 20 19 18 19 18 17 17 16 15 14 13 13 12 12 11 11 11 10 10 10 10 10 9 8 7 7 9 11 13 14 15 16 16 15 15 13 12 11 9 9 9 9 8 8 9 10 10 9 8 8 8 8 8 9 11 12 12 12 11 12 10 7 7 10 13 13 14 14 14 14 14 14 13 13 13 13
22 23 22 21 22 22 22 21 20 20 19 18 19 17 17 17 16 15 15 14 14 13 13 13 12 12 12 12 11 11 10 9 9 9 10 11 12 13 14 15 15 15 13 12 10 9 8 7 5 4 5 6 6 8 9 9 8 8 8 8 8 8 9 11 12 13 13 12 12 12 10 9 11 14 16 16 16 16 15 15 15 15 14 14 14
21 23 22 22 23 23 23 22 20 20 19 18 18 17 17 17 17 16 15 14 14 14 14 14 13 13 13 13 12 12 11 10 10 10 11 12 12 13 13 13 14 13 11 10 9 8 7 6 4 3 2 2 3 5 7 8 8 8 8 8 8 9 10 10 10 12 13 13 12 12 12 11 11 13 16 18 18 17 16 16 16 16 16 15 14
21 22 23 23 23 23 23 22 21 20 20 19 18 18 18 17 17 16 15 15 14 14 14 14 14 13 14 14 14 13 13 12 11 11 11 12 12 12 11 12 12 11 10 10 10 9 8 7 5 4 3 2 3 6 8 9 9 9 9 9 10 11 11 10 9 10 11 12 12 12 12 12 13 13 14 18 20 19 18 17 17 17 17 17 16
23 23 23 23 24 23 23 23 22 21 20 20 19 18 18 17 17 16 16 15 15 15 15 15 14 14 14 14 14 14 14 14 13 12 12 12 11 11 10 11 10 10 10 11 11 10 9 8 7 6 4 4 5 10 13 12 11 11 11 9 9 10 12 11 11 10 10 11 12 12 12 12 13 14 14 15 19 21 20 18 18 18 18 18 18
23 24 24 25 25 24 24 24 24 23 22 21 20 20 19 18 18 17 17 16 16 16 16 16 15 15 14 14 14 14 15 15 14 13 12 12 11 10 10 10 10 10 10 11 11 10 9 8 7 7 6 6 9 14 17 14 12 12 11 10 9 9 10 11 12 11 9 9 10 11 11 12 13 14 14 15 17 20 22 20 20 20 19 20 20
25 26 26 26 26 25 25 26 25 24 23 22 22 21 20 20 19 19 18 18 18 17 17 17 16 16 15 15 14 14 14 14 13 12 12 12 11 10 10 10 10 11 11 11 11 9 9 8 8 8 9 10 13 17 18 15 13 12 11 11 9 9 10 10 11 11 9 8 8 8 9 10 11 13 14 16 16 18 21 22 22 22 21 21 21
27 27 26 26 27 25 24 25 26 24 24 23 23 22 21 21 20 20 19 19 19 17 17 18 17 17 16 15 14 14 13 13 12 11 12 12 11 11 10 11 11 11 12 11 11 10 9 8 9 11 13 14 16 18 19 16 14 12 11 11 9 9 9 9 9 9 8 8 8 7 7 8 9 11 13 16 17 18 19 22 24 24 23 22 22
26 26 26 26 26 26 25 25 25 24 24 23 23 22 22 21 20 19 19 19 19 17 17 18 17 17 17 16 15 14 14 13 13 12 12 12 11 11 11 11 12 11 12 12 11 11 11 10 12 14 16 17 19 20 20 17 14 12 10 10 9 8 8 8 8 7 7 7 8 8 8 8 9 10 12 14 17 18 19 20 23 25 24 24 23
25 26 27 27 27 27 26 26 25 24 24 24 24 23 22 21 20 20 20 19 19 18 17 17 17 17 16 16 16 15 14 14 13 12 12 12 11 11 11 12 12 12 12 13 13 13 13 13 14 16 17 18 19 19 18 15 12 11 10 9 9 9 8 8 8 8 7 7 7 8 9 9 10 10 11 13 13 16 19 19 22 25 26 25 24
25 27 27 27 27 27 27 26 26 25 25 25 24 23 22 21 20 20 20 19 19 18 18 17 17 16 15 15 15 15 15 14 13 12 12 12 12 12 12 12 12 12 12 13 14 14 14 15 16 17 17 17 17 15 13 11 10 10 9 9 9 9 9 9 10 10 9 9 9 10 11 11 12 12 12 11 10 14 18 19 21 24 27 27 25
26 26 27 28 28 28 27 27 27 27 26 25 24 23 22 20 20 20 19 19 19 19 18 17 16 15 14 14 14 15 15 14 14 13 12 12 13 12 12 12 13 13 12 13 13 14 15 15 15 17 16 14 13 11 10 10 9 9 9 9 9 9 9 10 10 10 10 10 10 11 11 12 13 13 14 11 9 14 16 15 20 23 26 29 28
25 25 28 29 29 29 28 28 27 27 26 25 24 23 21 19 19 19 19 19 19 19 18 18 17 16 15 15 15 15 15 15 14 14 13 13 13 13 12 12 12 12 11 12 12 13 14 14 14 15 14 11 10 9 9 10 10 10 10 10 10 9 9 9 9 9 10 10 10 11 11 12 12 13 14 11 8 12 13 11 15 20 24 27 28
27 27 29 30 30 30 29 29 28 27 26 25 23 22 21 19 19 18 18 19 19 20 19 19 19 17 16 17 17 16 16 16 15 15 14 14 15 14 11 11 11 10 10 10 11 11 11 12 12 12 11 9 9 9 9 9 10 10 11 10 10 9 9 10 9 9 9 9 9 9 9 10 10 11 12 12 9 9 12 13 14 16 18 20 22
29 28 29 30 31 31 30 29 29 28 26 25 24 23 22 21 20 20 19 20 20 20 20 20 20 19 19 19 19 18 18 18 17 16 15 16 16 13 10 10 9 8 8 8 9 9 9 9 9 8 8 9 8 8 10 10 10 11 10 10 9 9 9 9 8 8 8 8 9 9 9 8 7 8 9 11 9 7 9 14 16 16 17 18 18
30 30 30 31 31 31 31 30 29 28 26 25 25 24 23 22 21 21 21 21 21 20 20 21 22 21 22 20 19 19 20 20 20 17 16 17 15 11 9 9 7 6 7 7 8 8 7 7 7 6 7 9 8 8 10 10 11 12 11 10 9 9 8 7 9 10 10 10 12 12 11 10 8 6 5 6 6 4 4 10 14 16 18 18 18
30 30 31 31 31 31 31 30 29 28 27 26 25 25 25 23 21 21 22 22 21 21 22 23 22 22 23 20 18 21 21 22 22 18 15 14 11 9 8 7 6 5 5 7 7 7 6 6 7 8 8 8 8 7 9 10 11 11 11 11 9 9 6 8 11 12 11 13 13 13 13 12 11 9 7 5 4 3 2 5 10 13 15 16 16
30 31 31 31 31 32 31 30 30 29 28 27 26 26 24 22 22 22 23 22 21 21 22 22 21 21 22 20 18 20 21 20 19 16 13 10 8 7 6 6 5 5 5 5 6 6 6 6 8 9 8 8 7 6 7 9 10 10 12 10 8 7 5 8 13 12 12 13 13 12 13 12 12 12 10 9 7 6 5 5 7 9 11 11 12
29 30 31 31 33 33 32 31 31 30 29 29 28 26 24 22 21 22 22 22 21 22 21 21 20 21 22 21 17 16 17 18 16 12 10 8 6 6 5 5 5 7 7 6 6 5 5 5 7 7 7 8 7 6 6 8 8 7 11 11 8 5 5 7 13 11 11 12 11 11 12 12 12 13 12 10 8 7 6 6 7 9 11 11 11
29 30 32 33 34 33 33 32 32 31 31 30 29 27 26 24 22 22 22 22 22 22 21 20 20 20 21 20 18 14 14 16 12 8 8 7 5 5 4 6 7 10 10 8 6 5 3 4 5 6 6 7 7 7 7 6 4 4 7 8 7 5 5 8 13 10 11 11 10 11 12 13 12 12 12 11 9 8 7 7 7 9 11 11 11
30 31 33 33 34 33 34 33 33 33 32 31 30 28 27 25 24 22 21 21 21 21 19 18 18 19 19 18 17 14 13 12 8 7 8 7 6 6 6 7 9 12 12 9 6 4 4 4 6 7 6 6 6 5 4 2 2 3 3 2 3 4 2 6 10 8 9 10 10 11 13 14 13 13 13 11 11 9 7 7 7 8 9 10 11
29 30 32 33 33 34 35 34 34 34 32 31 30 29 27 25 24 22 20 18 18 17 16 17 18 18 18 17 16 14 12 9 8 9 9 7 6 7 7 9 9 11 10 9 7 6 6 6 6 6 5 6 5 4 2 1 1 2 2 0 1 1 0 4 8 5 6 8 11 13 14 15 14 14 14 13 12 11 9 8 8 8 8 9 10
29 31 33 34 34 35 36 35 35 34 33 31 30 28 27 25 22 20 16 13 13 13 13 15 16 15 16 16 16 15 12 10 10 10 8 7 7 7 8 9 9 8 9 10 9 6 5 5 5 4 4 5 4 4 2 1 1 1 1 1 0 0 1 3 5 3 4 6 9 13 14 15 14 15 16 15 14 12 10 10 9 9 9 9 9
31 33 34 35 35 35 35 35 35 34 34 32 30 29 28 26 23 20 16 13 12 13 13 12 13 14 15 15 15 15 13 13 12 11 8 7 7 8 8 8 8 8 9 10 8 6 5 4 3 2 2 2 3 4 3 1 1 2 2 1 1 1 1 1 1 2 5 5 5 10 12 14 14 15 17 17 16 14 12 12 12 12 11 11 11
33 34 34 34 34 34 35 35 35 34 34 32 30 28 28 27 25 23 21 19 17 16 14 11 12 13 13 14 15 16 15 14 13 11 9 8 7 8 8 8 8 9 9 9 8 6 5 4 4 3 1 2 3 4 4 3 2 3 3 1 1 1 1 0 1 1 4 4 6 9 10 12 13 14 17 18 17 15 14 14 14 14 14 14 14
33 32 32 33 34 35 35 35 35 34 33 32 30 29 28 27 26 25 24 23 21 18 15 13 12 13 13 14 16 17 16 14 12 10 8 8 9 9 8 8 8 8 8 7 7 6 5 5 5 4 3 4 4 4 4 4 2 3 3 2 1 0 0 1 2 1 1 2 6 7 10 13 12 12 14 16 16 14 14 14 14 15 15 15 16
31 30 33 34 34 35 35 34 34 34 34 32 31 29 28 28 27 26 25 24 22 19 16 14 14 15 15 15 16 17 15 13 11 9 9 9 10 9 9 8 8 7 7 6 6 6 6 6 5 4 3 3 4 4 3 3 2 2 2 2 2 1 1 1 1 1 1 1 2 3 8 14 12 11 12 13 14 13 12 13 13 14 16 16 17
30 32 34 34 35 35 35 34 34 34 34 33 32 31 29 29 28 27 26 25 23 20 17 16 17 18 17 17 17 17 15 13 11 10 10 11 11 10 8 7 7 7 7 6 6 6 6 6 5 3 2 1 1 2 1 1 1 2 1 2 3 2 2 2 2 1 0 1 2 4 7 8 8 11 12 12 12 12 11 12 12 13 15 16 17
30 31 32 33 34 35 35 35 34 35 34 33 32 31 30 30 30 29 28 28 25 23 20 18 19 20 20 19 18 17 15 13 13 13 12 12 11 10 8 7 7 7 7 6 5 4 5 5 4 2 1 1 1 1 1 1 2 3 2 3 3 4 4 5 6 6 4 3 2 4 7 8 7 9 12 12 11 10 9 11 13 13 15 16 17
Wind_Direction
128 122 124 132 138 141 142 143 143 144 146 145 140 141 142 142 143 143 146 149 146 137 134 136 139 142 144 144 141 138 137 137 135 135 133 131 130 129 129 124 119 115 116 118 118 113 110 107 104 99 91 85 77 74 69 69 70 63 52 55 75 80 72 75 85 91 91 92 97 105 106 98 96 95 92 90 89 87 88 86 88 96 96 104 113
136 134 135 137 138 138 139 143 145 146 148 147 143 142 144 146 147 146 149 150 148 142 139 139 142 145 145 147 144 140 139 137 134 135 136 137 137 136 133 127 125 125 128 131 125 115 111 107 100 91 85 81 78 75 67 66 64 61 51 51 71 82 68 69 80 87 86 93 101 106 112 104 94 91 93 94 93 89 87 84 87 97 100 111 116
140 142 141 140 140 138 141 145 148 149 148 148 146 145 146 149 150 149 152 152 149 147 147 144 144 146 146 147 144 143 143 138 136 140 141 142 143 141 139 136 134 136 141 141 132 123 120 113 102 90 82 78 76 71 63 62 59 61 55 50 63 79 100 84 79 89 86 89 99 101 110 112 107 98 93 94 93 90 89 93 102 105 108 116 118
145 146 146 144 144 144 146 148 151 152 148 149 149 148 149 151 153 153 155 155 151 148 150 148 145 145 146 147 145 146 145 141 142 146 147 147 147 147 146 144 144 145 147 146 139 132 126 115 100 87 76 70 69 67 64 61 56 66 67 57 53 59 159 155 118 103 95 95 100 99 111 120 117 109 101 98 96 95 92 101 110 112 112 114 119
148 150 152 150 149 150 150 150 154 154 149 153 153 150 151 152 155 157 156 156 152 147 148 148 148 150 150 149 147 147 145 145 149 150 151 150 151 150 149 148 149 150 150 150 145 137 129 114 96 83 70 62 63 61 59 53 49 60 71 66 49 38 82 176 157 138 130 128 131 127 135 139 126 124 125 116 113 112 102 106 115 116 111 111 117
150 153 157 154 153 155 154 152 155 156 153 158 157 152 153 153 154 156 154 152 150 147 146 146 150 154 154 151 149 148 148 152 152 152 153 153 154 152 151 151 151 152 154 153 147 138 126 114 101 84 71 62 56 49 48 45 44 49 54 60 50 36 41 170 174 157 173 181 163 155 164 161 138 134 141 139 130 127 116 112 120 119 115 114 118
153 156 160 159 158 158 156 151 153 158 157 161 158 154 155 153 150 152 152 151 148 146 145 147 151 154 154 153 152 152 154 156 155 154 156 157 157 155 156 156 155 155 154 153 144 134 123 110 93 74 69 65 59 52 44 31 32 40 40 48 48 34 23 100 183 189 201 206 197 183 187 176 156 146 150 149 137 134 129 118 123 123 122 123 121
155 158 162 163 162 157 153 151 152 157 158 160 158 154 154 150 147 150 152 150 148 148 149 151 153 153 153 153 154 155 157 158 157 158 161 163 162 160 162 161 160 157 151 149 142 133 121 101 77 61 60 56 51 56 49 31 21 23 24 26 32 33 23 14 188 199 210 214 217 214 215 196 175 165 158 148 135 132 132 126 127 129 129 129 126
156 159 163 165 164 159 157 158 155 155 157 158 153 150 150 148 148 150 151 150 150 151 153 155 155 154 155 156 157 159 161 160 160 162 165 168 166 166 165 165 162 155 153 154 146 130 99 72 49 39 40 36 33 35 36 32 24 16 12 8 8 12 17 15 9 174 192 215 226 226 235 220 197 177 156 143 135 132 133 134 134 135 135 133 131
158 159 161 164 164 165 166 166 161 153 152 153 149 148 148 147 150 151 150 150 152 154 155 156 156 157 158 159 161 162 163 163 165 167 170 171 169 170 166 167 162 161 167 160 137 80 29 26 23 24 21 20 33 29 17 20 23 20 2 350 360 357 2 14 1 350 199 228 235 229 234 232 220 192 153 152 146 136 138 143 143 142 141 139 138
157 158 158 161 161 166 170 165 162 153 148 150 152 152 151 150 152 152 151 153 154 156 156 157 158 159 161 162 163 164 164 166 170 171 174 172 170 171 168 169 170 180 182 153 20 0 358 3 4 7 8 7 21 25 18 15 2 357 343 325 330 345 2 17 359 336 312 266 247 232 229 235 233 214 160 164 163 146 147 149 153 148 145 145 144
156 158 157 159 161 165 167 162 161 155 151 152 155 155 153 154 155 154 154 155 155 156 157 158 160 162 163 165 167 168 168 169 171 173 174 170 168 169 171 177 184 197 226 339 341 340 343 351 352 355 357 357 4 8 7 6 345 338 334 320 319 339 9 20 9 12 354 338 297 244 231 239 240 228 180 176 183 153 156 156 159 155 150 152 151
156 156 155 159 158 160 162 160 160 157 156 153 154 154 151 153 156 157 158 158 158 159 159 162 165 165 166 167 170 170 170 172 172 173 172 169 169 173 178 183 195 222 295 318 322 329 339 346 348 346 344 346 351 350 347 353 340 333 336 325 328 351 2 4 2 19 2 347 330 266 237 241 244 236 200 190 205 161 163 165 167 164 157 158 157
156 154 154 158 154 157 159 158 160 158 157 153 152 152 151 155 157 158 159 160 162 163 163 166 166 166 167 168 169 169 171 172 171 173 173 175 177 181 187 192 209 244 294 309 319 332 340 337 333 330 334 337 335 336 337 341 336 338 340 327 331 350 351 347 354 9 355 341 337 291 251 243 243 242 211 198 213 188 176 171 171 170 163 164 164
157 156 154 159 156 157 158 156 158 156 156 155 153 153 155 157 157 159 161 162 164 165 164 164 164 164 167 167 168 169 169 169 172 177 179 185 188 191 199 216 239 280 306 316 327 333 331 322 320 321 327 329 326 330 328 328 337 341 332 324 336 345 339 335 349 3 338 326 337 282 254 244 239 243 221 206 209 207 191 176 173 173 170 168 169
160 160 157 161 159 157 159 158 158 157 159 159 157 156 158 160 159 162 163 165 166 165 164 163 164 165 166 166 169 168 169 173 178 183 188 194 199 204 216 243 268 296 310 320 328 325 320 316 316 319 323 323 323 321 315 319 331 338 329 326 336 337 331 327 335 345 320 325 342 262 245 249 237 240 224 208 207 214 204 183 179 176 176 175 174
165 165 161 163 161 158 161 162 161 161 163 161 161 162 163 164 165 165 164 167 167 166 167 166 167 167 165 166 171 173 177 184 189 192 200 206 214 220 231 256 276 296 310 319 320 314 309 309 311 317 318 311 310 308 305 314 322 331 330 322 325 324 322 323 325 319 307 329 348 300 260 257 233 233 220 206 207 215 210 195 188 179 180 180 179
170 170 168 168 166 162 163 163 165 165 166 166 166 167 167 169 171 170 169 170 171 170 170 169 169 169 168 171 175 181 186 191 195 200 211 224 233 240 250 266 279 294 306 308 309 306 306 314 315 312 309 304 306 304 305 311 318 332 331 316 316 318 318 321 321 311 301 321 338 318 280 258 229 231 225 213 208 214 212 202 196 186 185 185 185
172 175 175 173 170 167 167 166 169 169 170 172 170 171 170 173 176 175 174 175 177 175 175 174 174 175 176 179 180 185 191 197 204 213 229 242 249 260 273 281 290 297 303 305 308 308 313 323 319 310 308 310 311 310 315 312 318 341 340 320 316 321 324 323 321 313 308 315 322 321 284 247 235 237 232 222 211 214 216 208 205 196 192 190 188
176 181 182 177 171 170 173 170 173 173 174 174 174 175 172 176 178 176 176 176 180 180 181 182 182 183 182 182 183 190 200 211 220 232 245 259 272 286 294 298 301 302 307 312 315 314 320 325 316 312 315 317 319 324 330 326 337 346 337 323 319 323 327 324 323 319 317 318 316 324 294 240 234 239 233 227 218 216 220 216 210 205 200 196 194
183 186 185 181 175 175 176 174 178 178 176 177 178 179 176 180 181 178 176 176 180 181 184 185 185 187 186 187 189 199 213 224 231 240 254 278 297 303 303 304 304 305 309 314 317 316 321 324 315 316 322 322 325 331 335 346 356 336 314 318 321 320 321 319 321 321 318 315 309 316 307 248 233 236 233 230 225 219 222 223 216 212 208 204 202
186 189 189 183 181 181 180 180 183 182 181 181 182 184 180 182 184 182 180 180 183 183 185 185 189 191 190 196 200 208 218 228 236 245 269 293 303 303 302 302 302 304 309 312 313 313 319 323 319 325 333 336 341 344 344 348 345 320 307 311 312 310 312 314 313 313 312 309 303 300 300 263 242 239 236 234 233 225 224 227 223 218 215 211 209
190 191 192 187 185 187 187 188 188 186 188 185 184 187 184 184 187 187 186 186 188 189 191 192 196 197 198 204 209 214 218 228 237 249 272 286 294 298 299 298 299 303 308 310 313 316 322 327 321 324 331 338 346 343 336 332 325 316 314 308 306 307 308 311 307 303 300 297 295 290 285 267 249 244 242 238 238 234 227 227 229 225 220 218 215
195 195 193 190 190 191 193 194 193 191 193 190 188 190 188 188 189 190 192 192 193 194 196 200 203 204 206 210 214 219 222 230 242 256 268 277 289 297 300 300 300 304 307 310 318 320 325 334 327 318 321 327 330 327 324 325 329 330 327 318 315 314 312 311 304 298 293 288 284 283 280 268 253 246 244 241 239 238 233 228 231 232 227 222 221
195 196 196 194 194 194 196 197 195 195 197 195 195 195 194 193 193 195 197 198 199 199 200 205 207 209 212 214 216 222 226 233 250 264 272 279 291 301 305 305 303 305 306 311 320 320 322 330 331 334 336 330 331 334 335 335 337 335 331 324 317 316 318 316 306 297 290 284 277 277 277 270 261 250 244 242 240 239 239 234 232 234 233 228 225
195 199 200 198 199 198 197 198 197 198 200 200 199 202 201 200 198 198 201 203 205 206 207 210 213 213 217 220 221 226 232 239 252 267 278 285 294 302 306 303 303 305 309 314 317 316 315 317 323 335 337 343 359 359 351 343 339 336 328 318 308 306 310 314 310 299 290 284 277 274 273 267 264 260 249 243 240 239 241 241 237 235 235 234 231
194 199 202 202 203 202 200 200 200 200 200 202 204 207 209 209 205 203 206 207 209 213 215 217 219 219 221 225 228 233 240 247 257 269 281 288 293 300 302 298 298 301 306 311 315 312 307 309 315 319 317 323 350 356 351 344 340 338 332 325 317 308 306 308 309 303 293 286 279 274 271 266 262 262 259 250 242 239 241 242 243 242 239 237 235
195 199 202 204 205 204 203 204 204 203 202 203 206 209 213 214 213 211 212 212 214 217 220 221 223 224 226 229 234 240 246 252 260 269 278 283 287 292 296 293 290 293 296 302 309 311 308 307 307 306 308 315 334 344 344 340 336 337 334 330 329 321 312 306 306 304 296 285 280 276 273 269 263 260 260 257 248 241 242 243 244 246 245 242 238
198 200 203 204 205 204 204 205 206 206 205 205 208 210 214 216 218 217 217 217 218 219 223 225 225 227 229 233 238 244 250 256 262 268 274 279 284 288 288 286 285 285 285 291 301 308 308 306 306 308 313 319 327 334 336 333 329 333 330 326 328 327 322 314 307 302 295 283 277 276 275 272 267 262 258 259 256 249 245 244 245 246 248 247 243
200 203 204 206 206 205 206 206 206 207 208 209 211 213 214 217 219 220 220 221 222 222 224 227 228 230 233 237 242 248 253 259 264 268 272 277 284 285 283 283 282 281 280 284 293 300 303 305 308 313 315 318 321 325 328 325 322 326 325 322 326 329 333 329 320 309 296 283 277 276 275 276 276 271 263 259 258 257 254 250 249 249 249 249 247
202 204 206 208 208 207 208 207 206 208 210 213 215 216 217 218 221 222 222 223 224 225 225 227 230 232 235 239 245 251 255 259 262 265 271 277 282 285 285 285 283 281 280 281 289 293 297 305 310 315 316 315 315 318 322 321 322 328 326 323 324 329 338 338 334 326 307 288 280 280 277 276 278 278 273 265 260 261 263 260 257 257 257 255 253
203 206 209 210 210 210 210 209 208 208 212 215 217 218 219 221 223 224 222 222 223 224 225 227 228 231 236 242 247 253 257 258 259 263 269 275 281 285 285 284 285 286 283 282 286 290 296 306 311 313 312 310 311 315 319 323 331 336 334 329 324 326 329 329 330 328 317 299 286 282 280 277 274 274 273 273 270 262 259 259 257 257 258 257 259
205 209 211 210 211 211 211 210 209 209 212 215 218 221 222 224 226 226 224 222 223 225 227 228 229 233 239 246 252 254 255 256 257 261 266 273 278 282 283 283 285 285 284 282 284 290 297 304 308 309 308 309 310 315 322 330 339 341 341 336 326 325 320 315 315 313 312 304 295 285 281 277 273 271 268 275 282 267 260 257 256 257 256 255 257
206 209 211 211 212 211 210 210 209 210 213 215 219 222 224 227 229 229 228 226 225 226 229 230 231 236 244 250 252 251 251 251 254 258 263 269 274 278 283 285 288 288 287 285 285 288 293 299 305 307 309 314 318 327 336 341 345 345 346 341 335 331 323 320 318 316 315 308 301 292 286 282 276 273 267 275 284 266 265 261 257 263 261 257 254
206 207 210 212 211 210 209 209 210 211 214 216 219 222 225 228 231 232 230 228 227 229 231 232 235 240 246 249 248 248 250 251 253 258 262 267 270 274 281 288 292 293 288 284 282 284 289 296 303 308 313 320 331 344 352 351 350 349 348 347 347 344 335 335 335 331 326 317 312 304 299 293 285 282 273 280 287 264 271 271 258 263 262 261 260
208 208 210 212 211 211 210 210 211 213 215 216 219 222 226 229 231 232 232 232 232 235 236 238 243 246 248 250 248 247 250 251 253 258 262 267 267 267 276 288 289 286 283 280 281 280 285 292 301 311 314 320 336 350 358 356 351 349 347 349 351 347 343 343 341 341 338 331 331 325 318 310 297 291 279 281 292 274 276 280 275 277 275 275 274
211 211 211 211 212 212 211 211 212 214 216 217 220 223 227 230 232 233 234 236 237 240 242 245 250 252 253 254 251 248 249 251 253 257 262 264 266 268 276 285 283 280 283 283 284 282 286 296 309 318 312 314 328 341 348 350 349 348 346 347 348 348 350 352 357 4 6 6 8 4 358 350 327 307 290 282 288 285 277 277 282 290 291 292 291
213 213 213 212 212 213 213 214 214 215 216 218 221 225 228 232 235 236 236 239 242 244 247 248 251 255 254 253 252 250 251 252 252 253 257 259 265 276 282 283 282 283 287 289 292 293 301 317 322 313 303 307 316 330 337 340 344 346 345 346 349 355 2 21 32 29 30 32 29 27 26 24 18 1 332 305 295 292 278 279 286 291 294 299 300
213 214 214 213 213 213 215 216 217 217 218 219 224 227 229 232 235 239 239 240 244 247 250 250 252 255 255 254 253 253 252 251 249 249 256 263 269 278 280 277 276 281 292 300 304 303 310 321 316 308 308 306 305 319 328 330 338 341 343 346 353 4 37 65 39 33 43 41 39 41 42 40 39 39 34 28 14 6 359 300 296 295 295 297 293
213 213 213 213 213 214 215 217 219 220 220 221 224 227 229 231 233 238 241 242 245 249 252 255 257 258 261 262 253 247 246 244 246 250 257 265 267 264 265 269 275 289 299 308 317 315 307 303 302 306 314 309 302 320 327 324 331 339 344 347 359 15 74 73 35 40 56 47 46 47 45 45 46 49 47 48 47 34 24 352 324 317 315 311 299
213 211 211 212 214 214 214 217 219 221 222 223 225 226 228 231 233 237 242 243 246 250 251 254 258 260 264 267 257 244 242 245 250 254 255 253 250 248 256 275 289 296 296 302 314 313 302 297 299 300 309 312 311 328 330 322 329 343 344 342 358 36 105 62 36 55 63 49 50 47 44 44 45 47 44 43 43 32 24 15 1 357 354 346 332
211 210 211 213 215 214 215 218 220 221 224 225 227 228 230 233 237 241 243 243 247 252 253 253 255 256 258 261 261 253 245 249 252 243 237 235 234 242 264 282 290 293 294 299 304 298 283 286 292 289 299 309 309 321 320 315 325 336 334 331 353 37 104 50 38 61 64 53 56 50 44 41 43 46 41 40 37 24 14 10 3 7 8 359 348
211 211 212 214 215 214 217 219 220 223 225 227 228 230 233 236 240 243 245 245 249 253 255 255 254 254 253 253 257 254 243 245 239 216 216 219 227 243 262 271 281 287 289 295 293 274 259 257 269 278 290 304 307 325 329 311 307 320 333 327 348 11 66 24 19 43 55 54 55 47 40 39 45 48 44 43 39 29 20 14 7 6 6 358 352
211 211 212 213 214 215 217 218 220 223 226 228 229 232 234 235 236 239 243 245 249 254 256 256 255 253 253 251 250 244 237 234 219 206 208 214 230 247 262 268 272 276 279 286 283 264 251 248 256 259 267 283 295 319 356 35 338 323 354 56 46 8 37 350 346 2 41 44 41 36 35 37 42 44 41 40 36 32 28 26 27 21 12 3 357
209 211 212 212 214 215 217 218 220 223 226 228 229 230 229 228 228 229 233 237 241 246 249 249 247 245 244 241 238 235 228 218 204 201 207 224 244 254 263 264 260 261 268 277 276 262 252 256 265 256 248 260 276 292 289 31 0 289 294 241 134 43 193 339 331 323 4 20 27 25 30 35 38 38 35 35 34 34 32 29 31 28 21 14 7
209 211 212 213 214 216 217 219 220 223 226 227 227 226 224 223 222 219 217 218 221 229 237 240 234 229 227 223 222 221 213 204 199 202 210 225 240 246 249 251 254 260 266 271 267 258 257 266 274 264 256 256 265 281 276 293 301 213 194 206 234 267 241 320 328 309 334 346 9 15 25 31 33 34 31 32 33 34 37 34 30 27 21 16 14
210 211 212 213 213 215 218 219 221 222 225 226 224 223 222 222 222 222 222 221 221 228 238 242 232 224 220 212 207 203 198 197 198 198 202 216 229 231 234 242 252 257 260 265 265 260 264 270 260 237 220 231 243 266 278 297 272 194 176 177 218 261 259 212 144 308 328 323 336 356 14 23 29 30 27 29 31 34 40 39 35 32 28 22 18
209 209 210 212 213 215 219 221 221 222 224 224 223 223 223 222 222 224 226 227 230 237 243 241 228 218 213 205 197 193 191 192 193 195 202 216 222 220 224 233 239 243 249 258 261 260 263 264 254 240 237 242 246 258 277 298 274 199 180 167 142 80 338 106 116 141 197 279 321 341 351 357 15 29 27 26 26 32 38 39 40 37 33 29 24
209 208 210 212 214 216 219 222 222 222 224 224 224 225 226 226 226 225 226 230 235 239 241 235 218 208 204 197 191 189 187 185 187 198 209 211 212 214 219 227 234 239 242 247 251 250 245 241 238 235 239 242 243 251 276 304 271 208 184 154 120 89 118 126 57 15 158 226 290 315 331 340 353 9 20 25 21 26 33 36 39 34 30 28 23
209 210 212 213 214 217 219 220 221 223 224 224 224 225 227 227 227 227 228 231 234 233 233 227 212 204 201 195 190 188 185 186 191 201 207 205 206 210 215 223 230 230 231 238 242 240 232 226 226 225 227 231 225 238 282 311 232 198 170 152 143 145 168 194 238 253 202 252 282 293 310 326 331 338 357 10 11 14 21 26 26 21 19 17 15
210 211 212 213 214 217 219 221 222 223 224 224 224 224 226 227 228 229 231 232 232 228 225 219 208 202 202 197 192 190 190 194 198 201 203 201 202 206 210 217 219 218 224 229 227 225 222 216 214 214 201 152 161 212 268 270 225 204 193 185 181 182 195 214 219 217 215 217 248 292 303 314 304 306 331 348 355 1 7 13 13 10 9 8 6